[[{"header":{"parameterUnit":"m.s-1","parameterCategory":1,"la1":30.2991,"la2":30.254,"lo1":-89.0895,"lo2":-89.0444,"dy":0.0017,"dx":0.0017,"nx":28,"ny":28,"refTime":"2023-08-10T21:00:00:Z","depth":0,"parameterNumber":2,"parameterNumberName":"U-component_of_WINDS"},"data":[0,0,0,0,0,0,0,0,0,0,0,0,0,0,0,0,0,0,0,0,0,0,0,0,0,0,0,0,0,0,0,0,0,0,0,0,0,0,0,0,0,0,0,0,0,0,0,0,0,0,0,0,0,0,0,0,0,0,3.1306,3.1308,0,3.1474,3.1476,3.1477,3.154,3.154,3.1539,3.1539,3.1715,3.172,3.1725,0,0,0,0,0,0,0,0,0,0,0,0,0,3.1046,3.105,3.1306,3.1308,3.131,3.1473,3.1476,3.1478,3.154,3.154,3.1539,3.1539,3.1713,3.1719,3.1725,0,0,0,0,0,0,0,0,0,0,0,0,0,3.1181,3.1052,3.1306,3.1361,3.1367,3.1473,3.1476,3.1479,3.1541,3.154,3.1539,3.1538,3.1711,3.1718,3.1726,3.179,0,0,3.175,3.1753,0,0,0,0,0,0,0,0,3.1173,3.119,3.1351,3.1357,3.1365,3.1485,3.1448,3.1583,3.1541,3.1475,3.1539,3.1538,3.1639,3.1653,3.1686,3.1798,3.1806,3.1751,3.1755,3.1759,3.1761,0,0,0,0,0,0,0,3.1163,3.1183,3.1372,3.1353,3.1362,3.1379,3.1397,3.1474,3.156,3.1481,3.1486,3.1504,3.1643,3.1679,3.1691,3.1808,3.175,3.1757,3.1762,3.1765,3.1985,3.1986,0,0,0,0,0,0,3.1144,3.1175,3.1367,3.1377,3.1265,3.1385,3.1405,3.1447,3.1559,3.1575,3.1505,3.1507,3.1666,3.1682,3.1697,3.1781,3.1759,3.1766,3.177,3.1984,3.1985,3.1987,0,0,0,0,0,0,3.1138,3.1161,3.136,3.1278,3.1304,3.139,3.1437,3.1451,3.1487,3.1577,3.1593,3.1525,3.1666,3.1686,3.1767,3.1788,3.1769,3.1776,3.1982,3.1984,3.1986,3.1948,0,0,0,0,0,0,3.1131,3.1158,3.1182,3.1278,3.1309,3.1425,3.1438,3.1455,3.1499,3.1503,3.16,3.1616,3.1667,3.1755,3.1775,3.1799,3.1782,3.1981,3.1983,3.1985,3.1948,3.1949,3.1949,0,0,0,0,0,3.1121,3.1165,3.1183,3.1205,3.134,3.1426,3.1444,3.15,3.1501,3.1526,3.1585,3.1613,3.1783,3.1763,3.1785,3.1812,3.198,3.1983,3.1985,3.1948,3.1949,3.1949,0,0,0,0,0,0,3.107,3.1178,3.1199,3.1275,3.1341,3.1437,3.147,3.1499,3.1567,3.1568,3.1637,3.1658,3.1734,3.1781,3.1757,3.1881,3.1883,3.1891,3.1847,3.1849,3.1849,3.1836,3.1789,0,0,0,0,0,3.1067,3.1127,3.1219,3.1277,3.1309,3.1384,3.1424,3.1462,3.1533,3.1562,3.1626,3.1696,3.1766,3.181,3.1879,3.1956,3.1979,3.1985,3.1986,3.1986,3.1991,3.2038,3.2043,3.1995,3.1995,3.1995,0,0,3.1063,3.113,3.1163,3.1269,3.1324,3.1387,3.1407,3.1472,3.1519,3.1572,3.1652,3.1702,3.1785,3.1864,3.1903,3.1906,3.201,3.1989,3.1988,3.1994,3.2042,3.2046,3.205,3.1997,3.1997,3.1996,0,0,3.1087,3.1142,3.1198,3.1253,3.1337,3.1387,3.14,3.1492,3.1527,3.1608,3.165,3.1709,3.1826,3.1884,3.1929,3.1977,3.2006,3.1998,3.2001,3.2045,3.2049,3.2053,3.2072,3.2078,3.2003,3.2003,3.2003,0,3.1071,3.1165,3.1223,3.1286,3.1332,3.1382,3.1441,3.1492,3.1594,3.1626,3.1628,3.1778,3.1837,3.1932,3.1944,3.1978,3.1998,3.1987,3.2044,3.2048,3.2052,3.2071,3.2078,3.2002,3.2002,3.2002,3.2002,0,3.1142,3.1207,3.1242,3.1339,3.139,3.145,3.1519,3.1563,3.1598,3.1648,3.1732,3.1804,3.189,3.1915,3.1949,3.2016,3.2016,3.203,3.2034,3.2054,3.2073,3.2081,3.2,3.2,3.2001,3.2001,0,0,3.1138,3.1267,3.1279,3.1324,3.1421,3.1474,3.1537,3.162,3.1658,3.1727,3.1784,3.1883,3.1898,3.1948,3.199,3.2029,3.2065,3.2039,3.2042,3.2042,3.2146,3.2135,3.2142,3.2085,3.2086,3.2088,3.2139,0,3.1175,3.1289,3.1345,3.1436,3.1498,3.1548,3.1604,3.167,3.172,3.1781,3.1836,3.1906,3.1919,3.195,3.1991,3.2052,3.2087,3.2049,3.214,3.2143,3.2118,3.2152,3.214,3.2185,3.2147,3.2148,3.2149,0,3.1234,3.1303,3.1399,3.1491,3.1519,3.1568,3.165,3.1707,3.1785,3.1818,3.1876,3.1916,3.1988,3.1986,3.2087,3.206,3.2101,3.2137,3.214,3.2151,3.2147,3.2165,3.2201,3.2208,3.2161,3.216,3.2159,0,3.1223,3.1339,3.1413,3.145,3.1559,3.1592,3.1639,3.1716,3.1763,3.1835,3.1867,3.1946,3.199,3.2052,3.2114,3.2107,3.221,3.2213,3.2241,3.224,3.2261,3.2259,3.2304,3.2286,3.2286,3.2285,3.2285,0,3.1259,3.1317,3.141,3.1455,3.1522,3.1586,3.1651,3.1703,3.1771,3.1829,3.1877,3.1931,3.2009,3.2073,3.2123,3.22,3.2219,3.225,3.2262,3.2246,3.2242,3.2274,3.2273,3.2287,3.2287,3.2287,3.2286,0,3.1258,3.1322,3.1406,3.1502,3.1527,3.1572,3.1656,3.1703,3.1755,3.1828,3.1849,3.1931,3.201,3.2078,3.2181,3.2215,3.2295,3.2309,3.2268,3.2275,3.23,3.2297,3.2368,3.2382,3.2353,3.2353,3.2353,0,3.1277,3.1323,3.1424,3.1465,3.1511,3.1578,3.1626,3.1692,3.174,3.1834,3.187,3.1952,3.2021,3.2144,3.2215,3.2295,3.2313,3.2332,3.2325,3.2308,3.2315,3.2311,3.2317,3.2332,3.2332,3.2332,3.2332,0,3.1305,3.1335,3.1402,3.148,3.1536,3.1601,3.1668,3.17,3.1779,3.1832,3.1912,3.1965,3.2071,3.2152,3.2241,3.2292,3.2326,3.2334,3.2345,3.2329,3.2303,3.2319,3.2269,3.2332,3.2332,3.2332,3.2332,3.2332,3.1316,3.136,3.1438,3.1511,3.1568,3.163,3.1679,3.1738,3.1805,3.1896,3.1931,3.2014,3.2094,3.2215,3.2267,3.2334,3.2339,3.2355,3.2359,3.2362,3.236,3.2292,3.235,3.235,3.235,3.235,3.235,0,3.1348,3.1401,3.1468,3.1559,3.1618,3.1644,3.172,3.1767,3.1838,3.1909,3.1976,3.2069,3.2149,3.2226,3.2311,3.235,3.2368,3.237,3.2368,3.238,3.235,3.2332,3.2354,3.2354,3.2354,3.2354,3.2354,3.2354,3.1371,3.1447,3.1486,3.1592,3.1645,3.1725,3.1766,3.1824,3.1881,3.1983,3.2049,3.2098,3.2173,3.2263,3.2338,3.2359,3.2389,3.2386,3.2412,3.2382,3.2381,3.238,3.2364,3.2392,3.2392,3.2436,3.2437,3.2437]},{"header":{"parameterUnit":"m.s-1","parameterCategory":1,"la1":30.2991,"la2":30.254,"lo1":-89.0895,"lo2":-89.0444,"dy":0.0017,"dx":0.0017,"nx":28,"ny":28,"refTime":"2023-08-10T21:00:00:Z","depth":0,"parameterNumber":3,"parameterNumberName":"V-component_of_WINDS"},"data":[0,0,0,0,0,0,0,0,0,0,0,0,0,0,0,0,0,0,0,0,0,0,0,0,0,0,0,0,0,0,0,0,0,0,0,0,0,0,0,0,0,0,0,0,0,0,0,0,0,0,0,0,0,0,0,0,0,0,0.3699,0.3699,0,0.3723,0.3724,0.3724,0.3743,0.3743,0.3743,0.3743,0.3768,0.3769,0.3769,0,0,0,0,0,0,0,0,0,0,0,0,0,0.3666,0.3666,0.3699,0.3699,0.37,0.3723,0.3724,0.3724,0.3743,0.3743,0.3743,0.3743,0.3768,0.3768,0.3769,0,0,0,0,0,0,0,0,0,0,0,0,0,0.3684,0.3666,0.3699,0.3712,0.3713,0.3723,0.3724,0.3724,0.3743,0.3743,0.3743,0.3743,0.3768,0.3768,0.3769,0.3769,0,0,0.3771,0.3772,0,0,0,0,0,0,0,0,0.3683,0.3685,0.371,0.3711,0.3712,0.373,0.3721,0.3739,0.3743,0.3731,0.3743,0.3744,0.3755,0.3757,0.3761,0.377,0.3771,0.3771,0.3772,0.3772,0.3772,0,0,0,0,0,0,0,0.3682,0.3684,0.3709,0.371,0.3712,0.3715,0.3718,0.3725,0.3742,0.3732,0.3734,0.3736,0.3756,0.376,0.3762,0.3771,0.3771,0.3772,0.3773,0.3773,0.3776,0.3776,0,0,0,0,0,0,0.3679,0.3683,0.3708,0.3709,0.3698,0.3716,0.3719,0.3724,0.3742,0.3744,0.3736,0.3737,0.3759,0.3761,0.3763,0.3761,0.3772,0.3773,0.3773,0.3777,0.3776,0.3776,0,0,0,0,0,0,0.3678,0.3681,0.3707,0.3697,0.37,0.3716,0.3722,0.3725,0.3729,0.3744,0.3747,0.3738,0.3759,0.3762,0.3766,0.3762,0.3773,0.3774,0.3777,0.3777,0.3776,0.3758,0,0,0,0,0,0,0.3677,0.368,0.3681,0.3697,0.3701,0.3711,0.3722,0.3725,0.373,0.3732,0.3746,0.3749,0.376,0.3765,0.3767,0.3763,0.3775,0.3778,0.3777,0.3776,0.3759,0.3757,0.3755,0,0,0,0,0,0.3676,0.3676,0.3681,0.3684,0.3702,0.3711,0.3713,0.3725,0.373,0.373,0.3739,0.3749,0.3762,0.3765,0.3768,0.3764,0.3778,0.3777,0.3776,0.376,0.3757,0.3755,0,0,0,0,0,0,0.3661,0.3678,0.3684,0.369,0.3698,0.3714,0.3715,0.3722,0.373,0.3731,0.3745,0.3748,0.3751,0.3758,0.3761,0.3762,0.3771,0.3771,0.3758,0.3755,0.3753,0.3751,0.3775,0,0,0,0,0,0.3658,0.3664,0.3679,0.3682,0.3686,0.3699,0.3703,0.3711,0.3721,0.3725,0.3735,0.3743,0.3749,0.3753,0.3759,0.376,0.3762,0.3758,0.3756,0.3755,0.3754,0.3752,0.375,0.3773,0.3773,0.3773,0,0,0.3653,0.3663,0.3666,0.3679,0.3687,0.3691,0.3702,0.3708,0.371,0.3726,0.373,0.3737,0.3747,0.3749,0.375,0.3755,0.3748,0.3754,0.3752,0.3753,0.3751,0.3748,0.3746,0.3773,0.3773,0.3773,0,0,0.3645,0.3654,0.3656,0.3663,0.3674,0.3682,0.3682,0.3696,0.3701,0.3705,0.3715,0.3719,0.3729,0.3735,0.3739,0.3729,0.3737,0.3731,0.372,0.3718,0.3716,0.3714,0.3709,0.3707,0.373,0.373,0.373,0,0.3637,0.3645,0.3657,0.366,0.3664,0.3677,0.3678,0.3684,0.3696,0.3698,0.3703,0.3714,0.3722,0.3724,0.3721,0.3725,0.3724,0.3729,0.3715,0.3714,0.3713,0.3707,0.3705,0.3729,0.3729,0.3729,0.3729,0,0.3633,0.3638,0.3638,0.3648,0.3653,0.3655,0.3666,0.3668,0.3675,0.3682,0.3684,0.3694,0.3701,0.3702,0.371,0.3704,0.3706,0.3713,0.3722,0.3709,0.3704,0.3702,0.3728,0.3728,0.3728,0.3729,0,0,0.3619,0.3633,0.3633,0.3636,0.3647,0.3651,0.3652,0.3658,0.3659,0.3666,0.3666,0.3673,0.3678,0.3683,0.3691,0.3689,0.3677,0.3696,0.3696,0.369,0.3668,0.3661,0.3659,0.3682,0.3682,0.3681,0.3666,0,0.3612,0.3616,0.3625,0.3625,0.3628,0.3638,0.3639,0.3645,0.3651,0.3653,0.3659,0.3663,0.3671,0.3673,0.3672,0.3679,0.3672,0.368,0.3681,0.3681,0.3677,0.3657,0.3651,0.3636,0.3664,0.3664,0.3664,0,0.3605,0.361,0.361,0.3617,0.3619,0.362,0.3624,0.3627,0.3632,0.3636,0.364,0.3647,0.3647,0.3655,0.3654,0.3659,0.366,0.3662,0.3662,0.3662,0.3671,0.3655,0.3632,0.3629,0.3661,0.3662,0.3662,0,0.3592,0.3599,0.3599,0.3602,0.3611,0.361,0.3614,0.362,0.3622,0.3625,0.3626,0.363,0.3631,0.3633,0.3641,0.3646,0.3638,0.3647,0.3639,0.3639,0.3637,0.3637,0.3613,0.3639,0.3639,0.364,0.364,0,0.3583,0.3583,0.3593,0.3593,0.3591,0.36,0.3598,0.3603,0.3607,0.3607,0.3616,0.3616,0.3626,0.3626,0.3632,0.3628,0.363,0.3631,0.3633,0.363,0.363,0.363,0.3631,0.3639,0.3639,0.3639,0.3639,0,0.357,0.3577,0.3577,0.3584,0.3586,0.3584,0.359,0.3589,0.3594,0.3594,0.3594,0.3602,0.3602,0.3609,0.3611,0.3615,0.3608,0.3612,0.3606,0.3607,0.3598,0.3598,0.3573,0.3569,0.3599,0.3599,0.3598,0,0.3563,0.3562,0.3569,0.3569,0.3571,0.3572,0.3573,0.3581,0.3581,0.3585,0.3583,0.3584,0.3585,0.3584,0.3589,0.359,0.3593,0.3584,0.3593,0.3589,0.359,0.359,0.3588,0.3582,0.3581,0.3581,0.3581,0,0.355,0.3552,0.3554,0.3555,0.3555,0.3557,0.3559,0.3559,0.3567,0.3566,0.3566,0.3566,0.3566,0.3566,0.3567,0.3569,0.3575,0.3577,0.3575,0.3572,0.3568,0.3568,0.3599,0.3578,0.3578,0.3579,0.3579,0.3579,0.3539,0.3537,0.354,0.354,0.3542,0.3543,0.3541,0.3545,0.3544,0.3545,0.3549,0.3547,0.3549,0.355,0.3552,0.3549,0.3553,0.3551,0.355,0.3549,0.3546,0.3569,0.355,0.355,0.355,0.355,0.355,0,0.3525,0.3526,0.3526,0.3527,0.3526,0.3531,0.3532,0.3531,0.3529,0.353,0.353,0.3527,0.3525,0.3529,0.3528,0.3525,0.3527,0.3524,0.3524,0.3523,0.3544,0.3545,0.3521,0.3521,0.3521,0.3521,0.3521,0.3521,0.3517,0.3514,0.3516,0.3512,0.3513,0.3511,0.3511,0.351,0.3511,0.3507,0.3506,0.3508,0.3509,0.3507,0.3504,0.3505,0.3504,0.3499,0.3501,0.352,0.3522,0.3525,0.3526,0.3499,0.3499,0.348,0.348,0.348]}]]